Weather in Bulgakovo

Russia / Smolensk Oblast     55°05′03″N   35°05′13″E
temp.,
°C
wind,
m/s
gust,
m/s
humid.,
%
clouds,
%
prec.,
mm/h
press.,
hPa
HPBL,
m
11 may, tue
tue1100:00+5ene26800 0.0 102785
03:00+3nne24850 0.0 102861
06:00+4ne28830 0.0 1028177
09:00+12ne48550 0.0 1027608
12:00+17ne46440 0.0 1025961
15:00+19ene46450 0.0 10241044
18:00+18e37600 0.0 1024948
21:00+12ne39912 0.0 1025168
12 may, wed
wed1200:00+12se399315 0.0 1026514
03:00+7se24975 0.0 102690
06:00+7se259320 0.0 1027149
09:00+12e236490 0.0 1026613
12:00+14ese2457100 0.0 1025950
15:00+14nw2668100 0.0 1019462
18:00+13e61395100 4.1 10151110
21:00+8se6139269 5.6 1018837
13 may, thu
thu1300:00+6e4109624 0.0 1019442
03:00+7e41593100 0.1 1018641
06:00+7ese4119587 0.1 1018571
09:00+9sse4989100 0.1 1018813
12:00+15sse475537 0.0 10171606
15:00+17sse574837 0.0 10162032
18:00+16sse47602 0.0 10151557
21:00+10se3995100 0.0 1015175
14 may, fri
fri1400:00+9se27975 0.0 1015162
03:00+8se249812 0.0 101681
06:00+9ese2695100 0.0 1016146
09:00+14se41086100 0.2 1015502
12:00+13ese399755 0.9 1015439
15:00+19se487765 2.2 10121024
18:00+18sse48865 1.9 1011645
21:00+14sse239588 4.6 101144
15 may, sat
sat1500:00+13s1196100 0.0 101111
03:00+12se2297100 0.0 101115
06:00+13ese1298100 0.3 101063
09:00+17se3590100 0.8 1009428
12:00+17se3592100 1.1 1008422
15:00+14ssw3897100 5.5 1008353
18:00+17ssw138042 0.3 1008431
21:00+13ese2296100 0.7 100835